WAT5643 KMSP-KATL

Flight info

Callsign WAT5643
Flight time 2h 22m
Altitude 37000
Route ZMBRO7 ODI J30 BRIBE/N0440F360 EDENS/N0442F370 ENL PLESS J45 BNA NEWBB IHAVE MTHEW CHPPR1
Aircraft A21N/M-SDE3FGHIJ5RWY/LB1

Departure

Time 2026-05-04 17:28
Airport Minneapolis–Saint Paul International Airport / Wold–Chamberlain Field (KMSP)

Arrival

Time 2026-05-04 19:50
Airport Hartsfield Jackson Atlanta International Airport (KATL)
Time Latitude Longitude Altitude Speed Heading
2026-05-04 17:05 44.88360 -93.21694 827 ft 0 kts 87°
2026-05-04 17:17 44.88359 -93.21714 827 ft 2 kts 87°
2026-05-04 17:18 44.88358 -93.21734 828 ft 2 kts 87°
2026-05-04 17:18 44.88360 -93.21774 828 ft 2 kts 125°
2026-05-04 17:19 44.88375 -93.21789 829 ft 1 kts 170°
2026-05-04 17:19 44.88379 -93.21790 829 ft 0 kts 167°
2026-05-04 17:21 44.88374 -93.21787 829 ft 2 kts 167°
2026-05-04 17:22 44.88353 -93.21782 829 ft 5 kts 173°
2026-05-04 17:22 44.88314 -93.21781 829 ft 6 kts 181°
2026-05-04 17:23 44.88205 -93.21613 826 ft 12 kts 121°
2026-05-04 17:23 44.88165 -93.21523 826 ft 13 kts 129°
2026-05-04 17:23 44.88036 -93.21360 824 ft 15 kts 119°
2026-05-04 17:24 44.88017 -93.21234 823 ft 15 kts 95°
2026-05-04 17:24 44.87875 -93.20849 817 ft 17 kts 121°
2026-05-04 17:25 44.87818 -93.20719 816 ft 13 kts 121°
2026-05-04 17:25 44.87715 -93.20481 813 ft 17 kts 122°
2026-05-04 17:26 44.87601 -93.20218 810 ft 19 kts 120°
2026-05-04 17:26 44.87429 -93.20074 808 ft 11 kts 209°
2026-05-04 17:27 44.87392 -93.20213 808 ft 16 kts 302°
2026-05-04 17:27 44.87871 -93.21326 824 ft 136 kts 301°
2026-05-04 17:28 44.88926 -93.23431 1752 ft 160 kts 310°
2026-05-04 17:29 44.90925 -93.25979 3584 ft 172 kts 321°
2026-05-04 17:29 44.94264 -93.25035 4718 ft 257 kts 46°
2026-05-04 17:30 44.94989 -93.18075 6542 ft 308 kts 119°
2026-05-04 17:31 44.92399 -93.14701 7936 ft 309 kts 153°
2026-05-04 17:31 44.87747 -93.10671 10040 ft 319 kts 157°
2026-05-04 17:32 44.84545 -93.07843 11064 ft 339 kts 156°
2026-05-04 17:33 44.79331 -93.03017 12422 ft 378 kts 148°
2026-05-04 17:33 44.77800 -93.00770 13045 ft 391 kts 135°
2026-05-04 17:34 44.73827 -92.92979 15009 ft 401 kts 131°
2026-05-04 17:34 44.72467 -92.90340 15619 ft 404 kts 132°
2026-05-04 17:35 44.68214 -92.82437 17380 ft 413 kts 134°
2026-05-04 17:35 44.65310 -92.77179 18525 ft 418 kts 134°
2026-05-04 17:35 44.63794 -92.74443 19089 ft 421 kts 134°
2026-05-04 17:36 44.62307 -92.71770 19610 ft 425 kts 134°
2026-05-04 17:36 44.60814 -92.69087 20120 ft 428 kts 134°
2026-05-04 17:36 44.59288 -92.66348 20655 ft 431 kts 134°
2026-05-04 17:36 44.57764 -92.63612 21166 ft 433 kts 134°
2026-05-04 17:37 44.56235 -92.60871 21675 ft 436 kts 134°
2026-05-04 17:37 44.54690 -92.58110 22153 ft 439 kts 133°
2026-05-04 17:37 44.53130 -92.55321 22628 ft 442 kts 133°
2026-05-04 17:37 44.51542 -92.52485 23109 ft 445 kts 133°
2026-05-04 17:38 44.50009 -92.49748 23556 ft 448 kts 133°
2026-05-04 17:38 44.48403 -92.46883 24022 ft 451 kts 133°
2026-05-04 17:38 44.46800 -92.44022 24475 ft 453 kts 133°
2026-05-04 17:38 44.45192 -92.41157 24918 ft 456 kts 133°
2026-05-04 17:39 44.41926 -92.35362 25713 ft 462 kts 133°
2026-05-04 17:39 44.40297 -92.32468 26086 ft 464 kts 134°
2026-05-04 17:39 44.38636 -92.29520 26488 ft 465 kts 134°
2026-05-04 17:40 44.36995 -92.26611 26894 ft 467 kts 135°
2026-05-04 17:40 44.35310 -92.23634 27248 ft 469 kts 134°
2026-05-04 17:40 44.33606 -92.20625 27593 ft 472 kts 134°
2026-05-04 17:40 44.31830 -92.17491 27935 ft 474 kts 134°
2026-05-04 17:41 44.30145 -92.14520 28265 ft 476 kts 134°
2026-05-04 17:41 44.28457 -92.11550 28566 ft 479 kts 134°
2026-05-04 17:41 44.26734 -92.08516 28896 ft 480 kts 134°
2026-05-04 17:41 44.25023 -92.05505 29227 ft 482 kts 134°
2026-05-04 17:42 44.23326 -92.02524 29513 ft 484 kts 134°
2026-05-04 17:42 44.21569 -91.99443 29793 ft 486 kts 134°
2026-05-04 17:42 44.19832 -91.96400 30075 ft 489 kts 134°
2026-05-04 17:42 44.18108 -91.93381 30341 ft 491 kts 134°
2026-05-04 17:43 44.16352 -91.90313 30630 ft 492 kts 134°
2026-05-04 17:43 44.14574 -91.87209 30888 ft 494 kts 134°
2026-05-04 17:43 44.12791 -91.84096 31173 ft 495 kts 134°
2026-05-04 17:43 44.11014 -91.80999 31526 ft 494 kts 134°
2026-05-04 17:44 44.09262 -91.77945 31894 ft 493 kts 134°
2026-05-04 17:44 44.07507 -91.74887 32277 ft 491 kts 134°
2026-05-04 17:44 44.05736 -91.71806 32621 ft 490 kts 134°
2026-05-04 17:44 44.03992 -91.68783 32947 ft 489 kts 134°
2026-05-04 17:45 44.02241 -91.65749 33246 ft 489 kts 134°
2026-05-04 17:45 44.00502 -91.62737 33543 ft 488 kts 134°
2026-05-04 17:45 43.98737 -91.59687 33862 ft 487 kts 134°
2026-05-04 17:45 43.97004 -91.56696 34164 ft 486 kts 134°
2026-05-04 17:46 43.95259 -91.53687 34452 ft 485 kts 134°
2026-05-04 17:46 43.93515 -91.50685 34710 ft 484 kts 134°
2026-05-04 17:46 43.91772 -91.47736 34926 ft 483 kts 136°
2026-05-04 17:46 43.89920 -91.44856 35108 ft 481 kts 139°
2026-05-04 17:47 43.88022 -91.42137 35293 ft 480 kts 140°
2026-05-04 17:47 43.86113 -91.39452 35450 ft 481 kts 140°
2026-05-04 17:47 43.84152 -91.36710 35598 ft 482 kts 140°
2026-05-04 17:47 43.82189 -91.33974 35739 ft 483 kts 141°
2026-05-04 17:48 43.80262 -91.31285 35860 ft 484 kts 141°
2026-05-04 17:48 43.78304 -91.28549 35997 ft 485 kts 141°
2026-05-04 17:48 43.76350 -91.25820 36154 ft 485 kts 140°
2026-05-04 17:48 43.74411 -91.23115 36303 ft 485 kts 140°
2026-05-04 17:49 43.72463 -91.20391 36432 ft 485 kts 140°
2026-05-04 17:49 43.70509 -91.17667 36548 ft 486 kts 140°
2026-05-04 17:49 43.66588 -91.12206 36587 ft 488 kts 140°
2026-05-04 17:50 43.62646 -91.06724 36596 ft 488 kts 140°
2026-05-04 17:50 43.58737 -91.01296 36601 ft 489 kts 140°
2026-05-04 17:51 43.54786 -90.95821 36603 ft 489 kts 140°
2026-05-04 17:51 43.50849 -90.90383 36604 ft 489 kts 140°
2026-05-04 17:52 43.46941 -90.84991 36601 ft 489 kts 140°
2026-05-04 17:52 43.43014 -90.79580 36595 ft 488 kts 140°
2026-05-04 17:53 43.39082 -90.74178 36595 ft 488 kts 140°
2026-05-04 17:53 43.35136 -90.68769 36592 ft 487 kts 140°
2026-05-04 17:54 43.31221 -90.63412 36593 ft 488 kts 140°
2026-05-04 17:54 43.27298 -90.58051 36594 ft 488 kts 140°
2026-05-04 17:55 43.23324 -90.52634 36596 ft 486 kts 140°
2026-05-04 17:55 43.19393 -90.47291 36595 ft 487 kts 140°
2026-05-04 17:56 43.15455 -90.41943 36593 ft 488 kts 139°
2026-05-04 17:56 43.11519 -90.36605 36596 ft 488 kts 139°
2026-05-04 17:57 43.07568 -90.31252 36596 ft 488 kts 140°
2026-05-04 17:57 43.03625 -90.25923 36597 ft 487 kts 140°
2026-05-04 17:58 42.99723 -90.20665 36598 ft 487 kts 140°
2026-05-04 17:58 42.95787 -90.15372 36604 ft 487 kts 140°
2026-05-04 17:59 42.91853 -90.10094 36604 ft 487 kts 140°
2026-05-04 18:00 42.85901 -90.02154 36615 ft 484 kts 142°
2026-05-04 18:00 42.81483 -89.97889 36613 ft 473 kts 158°
2026-05-04 18:01 42.76552 -89.95313 36624 ft 461 kts 173°
2026-05-04 18:01 42.71426 -89.94445 36628 ft 447 kts 187°
2026-05-04 18:02 42.63846 -89.94956 36626 ft 445 kts 190°
2026-05-04 18:02 42.58821 -89.95350 36623 ft 444 kts 190°
2026-05-04 18:03 42.53724 -89.95715 36624 ft 445 kts 189°
2026-05-04 18:03 42.48671 -89.96056 36635 ft 445 kts 189°
2026-05-04 18:04 42.43620 -89.96388 36628 ft 445 kts 189°
2026-05-04 18:05 42.36000 -89.96886 36641 ft 445 kts 189°
2026-05-04 18:05 42.30957 -89.97214 36629 ft 446 kts 189°
2026-05-04 18:06 42.23279 -89.97713 36638 ft 446 kts 189°
2026-05-04 18:06 42.18237 -89.98038 36636 ft 446 kts 189°
2026-05-04 18:07 42.13106 -89.98370 36642 ft 447 kts 189°
2026-05-04 18:07 42.07906 -89.98708 36629 ft 447 kts 188°
2026-05-04 18:08 42.02621 -89.99048 36637 ft 447 kts 188°
2026-05-04 18:08 41.97349 -89.99386 36627 ft 448 kts 188°
2026-05-04 18:09 41.86715 -90.00066 36634 ft 450 kts 188°
2026-05-04 18:10 41.81385 -90.00407 36640 ft 450 kts 188°
2026-05-04 18:10 41.76025 -90.00748 36636 ft 450 kts 188°
2026-05-04 18:11 41.70644 -90.01092 36631 ft 450 kts 188°
2026-05-04 18:11 41.65341 -90.01430 36638 ft 451 kts 188°
2026-05-04 18:12 41.59974 -90.01770 36638 ft 450 kts 188°
2026-05-04 18:12 41.54634 -90.02110 36643 ft 450 kts 188°
2026-05-04 18:13 41.49303 -90.02449 36658 ft 451 kts 188°
2026-05-04 18:14 41.41364 -90.02952 36661 ft 451 kts 188°
2026-05-04 18:14 41.36049 -90.03289 36664 ft 452 kts 188°
2026-05-04 18:15 41.25686 -90.03948 36672 ft 452 kts 188°
2026-05-04 18:16 41.20477 -90.04279 36674 ft 452 kts 187°
2026-05-04 18:16 41.15247 -90.04366 36681 ft 455 kts 182°
2026-05-04 18:17 41.07305 -90.03221 36687 ft 462 kts 174°
2026-05-04 18:18 40.99523 -90.00711 36686 ft 464 kts 169°
2026-05-04 18:18 40.94349 -89.98913 36690 ft 464 kts 169°
2026-05-04 18:19 40.86528 -89.96226 36685 ft 464 kts 169°
2026-05-04 18:19 40.81375 -89.94466 36697 ft 464 kts 169°
2026-05-04 18:20 40.76140 -89.92685 36690 ft 464 kts 169°
2026-05-04 18:20 40.70934 -89.90916 36706 ft 464 kts 169°
2026-05-04 18:21 40.65728 -89.89151 36704 ft 465 kts 169°
2026-05-04 18:21 40.60524 -89.87389 36706 ft 464 kts 169°
2026-05-04 18:22 40.55202 -89.85591 36704 ft 464 kts 169°
2026-05-04 18:22 40.49915 -89.83809 36696 ft 464 kts 169°
2026-05-04 18:23 40.44671 -89.82042 36709 ft 464 kts 169°
2026-05-04 18:23 40.39412 -89.80274 36703 ft 464 kts 169°
2026-05-04 18:24 40.34152 -89.78509 36700 ft 465 kts 169°
2026-05-04 18:24 40.28914 -89.76753 36705 ft 465 kts 169°
2026-05-04 18:25 40.23717 -89.75013 36703 ft 464 kts 169°
2026-05-04 18:25 40.18512 -89.73274 36721 ft 464 kts 169°
2026-05-04 18:26 40.13280 -89.71529 36716 ft 465 kts 169°
2026-05-04 18:26 40.08023 -89.69777 36725 ft 464 kts 169°
2026-05-04 18:27 40.02803 -89.68040 36730 ft 464 kts 169°
2026-05-04 18:27 39.97650 -89.66330 36729 ft 463 kts 169°
2026-05-04 18:28 39.92399 -89.64590 36730 ft 463 kts 169°
2026-05-04 18:28 39.87207 -89.62871 36730 ft 464 kts 169°
2026-05-04 18:29 39.81997 -89.61149 36734 ft 465 kts 169°
2026-05-04 18:29 39.76836 -89.59445 36734 ft 465 kts 169°
2026-05-04 18:30 39.68979 -89.56860 36735 ft 466 kts 169°
2026-05-04 18:31 39.63796 -89.55156 36742 ft 467 kts 169°
2026-05-04 18:31 39.58574 -89.53443 36747 ft 467 kts 169°
2026-05-04 18:32 39.53340 -89.51728 36753 ft 467 kts 169°
2026-05-04 18:32 39.48136 -89.50025 36761 ft 467 kts 169°
2026-05-04 18:33 39.42850 -89.48299 36762 ft 467 kts 169°
2026-05-04 18:33 39.37577 -89.46578 36751 ft 468 kts 170°
2026-05-04 18:34 39.32322 -89.44868 36770 ft 468 kts 170°
2026-05-04 18:34 39.27045 -89.43154 36766 ft 469 kts 170°
2026-05-04 18:35 39.21712 -89.41424 36771 ft 469 kts 169°
2026-05-04 18:35 39.16441 -89.39714 36774 ft 469 kts 170°
2026-05-04 18:36 39.11116 -89.37992 36768 ft 470 kts 170°
2026-05-04 18:36 39.05747 -89.36258 36768 ft 471 kts 170°
2026-05-04 18:37 39.00393 -89.34531 36776 ft 471 kts 171°
2026-05-04 18:37 38.95075 -89.32819 36784 ft 471 kts 171°
2026-05-04 18:38 38.89754 -89.31107 36786 ft 470 kts 171°
2026-05-04 18:38 38.84455 -89.29406 36781 ft 470 kts 171°
2026-05-04 18:39 38.79179 -89.27714 36788 ft 470 kts 171°
2026-05-04 18:39 38.73858 -89.26014 36789 ft 470 kts 171°
2026-05-04 18:40 38.68539 -89.24314 36792 ft 471 kts 171°
2026-05-04 18:40 38.63235 -89.22623 36793 ft 469 kts 171°
2026-05-04 18:41 38.57950 -89.20941 36799 ft 469 kts 171°
2026-05-04 18:41 38.52671 -89.19266 36802 ft 470 kts 171°
2026-05-04 18:42 38.47390 -89.17591 36807 ft 470 kts 171°
2026-05-04 18:42 38.42134 -89.15926 36809 ft 470 kts 171°
2026-05-04 18:43 38.36860 -89.14224 36807 ft 471 kts 171°
2026-05-04 18:43 38.31598 -89.12515 36810 ft 470 kts 171°
2026-05-04 18:44 38.26362 -89.10823 36816 ft 469 kts 171°
2026-05-04 18:44 38.21101 -89.09127 36819 ft 469 kts 171°
2026-05-04 18:45 38.15869 -89.07447 36816 ft 469 kts 171°
2026-05-04 18:45 38.10599 -89.05759 36824 ft 469 kts 171°
2026-05-04 18:46 38.05396 -89.04093 36830 ft 469 kts 171°
2026-05-04 18:46 38.00111 -89.02405 36831 ft 469 kts 171°
2026-05-04 18:47 37.94893 -89.00742 36840 ft 470 kts 171°
2026-05-04 18:47 37.89663 -88.99068 36846 ft 470 kts 169°
2026-05-04 18:48 37.84587 -88.96764 36859 ft 477 kts 159°
2026-05-04 18:48 37.79810 -88.93318 36865 ft 483 kts 148°
2026-05-04 18:49 37.75565 -88.88841 36863 ft 488 kts 137°
2026-05-04 18:49 37.71804 -88.83609 36871 ft 489 kts 133°
2026-05-04 18:50 37.68146 -88.78319 36860 ft 488 kts 133°
2026-05-04 18:50 37.64461 -88.73099 36865 ft 488 kts 134°
2026-05-04 18:51 37.60733 -88.67884 36868 ft 488 kts 134°
2026-05-04 18:51 37.57013 -88.62680 36869 ft 488 kts 134°
2026-05-04 18:52 37.53280 -88.57468 36868 ft 488 kts 134°
2026-05-04 18:52 37.49575 -88.52308 36883 ft 488 kts 134°
2026-05-04 18:53 37.45850 -88.47128 36884 ft 487 kts 134°
2026-05-04 18:53 37.42097 -88.41917 36888 ft 487 kts 134°
2026-05-04 18:54 37.38361 -88.36739 36882 ft 487 kts 134°
2026-05-04 18:54 37.34220 -88.31012 36877 ft 487 kts 135°
2026-05-04 18:55 37.30329 -88.25639 36887 ft 487 kts 135°
2026-05-04 18:55 37.24704 -88.17868 36888 ft 487 kts 135°
2026-05-04 18:56 37.20908 -88.12638 36892 ft 486 kts 135°
2026-05-04 18:56 37.17143 -88.07462 36887 ft 486 kts 135°
2026-05-04 18:57 37.13346 -88.02254 36888 ft 486 kts 135°
2026-05-04 18:57 37.09569 -87.97079 36894 ft 486 kts 135°
2026-05-04 18:58 37.05779 -87.91896 36899 ft 486 kts 135°
2026-05-04 18:58 37.01987 -87.86719 36914 ft 486 kts 135°
2026-05-04 18:59 36.98210 -87.81570 36916 ft 486 kts 135°
2026-05-04 18:59 36.94450 -87.76455 36912 ft 486 kts 135°
2026-05-04 19:00 36.90682 -87.71335 36916 ft 486 kts 135°
2026-05-04 19:00 36.86897 -87.66201 36921 ft 485 kts 135°
2026-05-04 19:01 36.83180 -87.61167 36925 ft 485 kts 135°
2026-05-04 19:01 36.79403 -87.56058 36927 ft 485 kts 135°
2026-05-04 19:02 36.75634 -87.50970 36931 ft 485 kts 135°
2026-05-04 19:02 36.71921 -87.45966 36936 ft 485 kts 135°
2026-05-04 19:03 36.68135 -87.40871 36938 ft 485 kts 135°
2026-05-04 19:03 36.64409 -87.35868 36940 ft 485 kts 135°
2026-05-04 19:04 36.60644 -87.30815 36947 ft 485 kts 136°
2026-05-04 19:04 36.56907 -87.25801 36946 ft 485 kts 136°
2026-05-04 19:05 36.53126 -87.20737 36941 ft 484 kts 136°
2026-05-04 19:05 36.49405 -87.15763 36937 ft 484 kts 136°
2026-05-04 19:06 36.45634 -87.10733 36937 ft 484 kts 136°
2026-05-04 19:06 36.41845 -87.05690 36942 ft 484 kts 136°
2026-05-04 19:07 36.37981 -87.00552 36946 ft 484 kts 136°
2026-05-04 19:07 36.34219 -86.95559 36954 ft 483 kts 136°
2026-05-04 19:08 36.30471 -86.90595 36958 ft 483 kts 136°
2026-05-04 19:08 36.26519 -86.85368 36965 ft 483 kts 136°
2026-05-04 19:09 36.22619 -86.80216 36971 ft 483 kts 136°
2026-05-04 19:09 36.18640 -86.74980 36977 ft 483 kts 137°
2026-05-04 19:10 36.14653 -86.70326 36981 ft 481 kts 143°
2026-05-04 19:10 36.10344 -86.66251 36983 ft 478 kts 149°
2026-05-04 19:11 36.05722 -86.62740 36984 ft 476 kts 154°
2026-05-04 19:11 36.00959 -86.59431 36983 ft 476 kts 155°
2026-05-04 19:12 35.98558 -86.57764 36830 ft 478 kts 155°
2026-05-04 19:12 35.93817 -86.54453 36181 ft 476 kts 154°
2026-05-04 19:12 35.91451 -86.52796 35898 ft 476 kts 154°
2026-05-04 19:13 35.89106 -86.51151 35621 ft 475 kts 154°
2026-05-04 19:13 35.86743 -86.49495 35334 ft 475 kts 154°
2026-05-04 19:13 35.84402 -86.47855 35047 ft 475 kts 154°
2026-05-04 19:13 35.82033 -86.46196 34761 ft 475 kts 154°
2026-05-04 19:14 35.79723 -86.44580 34473 ft 475 kts 154°
2026-05-04 19:14 35.77339 -86.42913 34126 ft 474 kts 154°
2026-05-04 19:14 35.74976 -86.41260 33782 ft 475 kts 154°
2026-05-04 19:14 35.72628 -86.39617 33518 ft 476 kts 154°
2026-05-04 19:15 35.70314 -86.37978 33338 ft 476 kts 153°
2026-05-04 19:15 35.67935 -86.36283 33155 ft 477 kts 153°
2026-05-04 19:15 35.65630 -86.34642 33014 ft 477 kts 154°
2026-05-04 19:16 35.60894 -86.31278 33002 ft 478 kts 154°
2026-05-04 19:16 35.56158 -86.27926 33002 ft 478 kts 154°
2026-05-04 19:17 35.51458 -86.24605 32999 ft 478 kts 154°
2026-05-04 19:17 35.46786 -86.21306 33000 ft 477 kts 154°
2026-05-04 19:18 35.42148 -86.17730 33005 ft 480 kts 148°
2026-05-04 19:18 35.37776 -86.13618 33005 ft 482 kts 144°
2026-05-04 19:19 35.33438 -86.09365 33017 ft 481 kts 144°
2026-05-04 19:19 35.29160 -86.05198 33015 ft 481 kts 145°
2026-05-04 19:20 35.24799 -86.00982 33023 ft 480 kts 145°
2026-05-04 19:20 35.20463 -85.96822 33028 ft 480 kts 145°
2026-05-04 19:20 35.18322 -85.94772 32850 ft 475 kts 145°
2026-05-04 19:21 35.15791 -85.92352 32579 ft 471 kts 145°
2026-05-04 19:21 35.13195 -85.89873 32302 ft 471 kts 145°
2026-05-04 19:21 35.10974 -85.87754 32066 ft 471 kts 145°
2026-05-04 19:21 35.08822 -85.85702 31838 ft 472 kts 145°
2026-05-04 19:22 35.06710 -85.83688 31575 ft 472 kts 145°
2026-05-04 19:22 35.04573 -85.81654 31206 ft 469 kts 145°
2026-05-04 19:22 35.02443 -85.79626 30931 ft 467 kts 145°
2026-05-04 19:22 35.00297 -85.77583 30595 ft 466 kts 145°
2026-05-04 19:23 34.98139 -85.75530 30215 ft 463 kts 145°
2026-05-04 19:23 34.96055 -85.73550 29829 ft 461 kts 145°
2026-05-04 19:23 34.93940 -85.71542 29439 ft 458 kts 145°
2026-05-04 19:23 34.91831 -85.69541 29043 ft 455 kts 145°
2026-05-04 19:24 34.89746 -85.67565 28646 ft 452 kts 145°
2026-05-04 19:24 34.87711 -85.65638 28257 ft 449 kts 145°
2026-05-04 19:24 34.85661 -85.63697 27871 ft 446 kts 145°
2026-05-04 19:24 34.83643 -85.61787 27490 ft 443 kts 145°
2026-05-04 19:25 34.81630 -85.59886 27104 ft 440 kts 145°
2026-05-04 19:25 34.79644 -85.58008 26720 ft 437 kts 145°
2026-05-04 19:25 34.77645 -85.56116 26326 ft 434 kts 145°
2026-05-04 19:25 34.75523 -85.54105 25907 ft 431 kts 145°
2026-05-04 19:26 34.73169 -85.51878 25440 ft 428 kts 145°
2026-05-04 19:26 34.70835 -85.49674 24978 ft 425 kts 145°
2026-05-04 19:26 34.68546 -85.47511 24508 ft 423 kts 146°
2026-05-04 19:26 34.66206 -85.45305 24037 ft 420 kts 145°
2026-05-04 19:27 34.63894 -85.43127 23562 ft 417 kts 145°
2026-05-04 19:27 34.61607 -85.40975 23100 ft 414 kts 146°
2026-05-04 19:27 34.59752 -85.39230 22715 ft 412 kts 145°
2026-05-04 19:27 34.57681 -85.37283 22289 ft 410 kts 145°
2026-05-04 19:28 34.55405 -85.35146 21817 ft 407 kts 145°
2026-05-04 19:28 34.53147 -85.33028 21339 ft 404 kts 146°
2026-05-04 19:28 34.50906 -85.30925 20865 ft 401 kts 146°
2026-05-04 19:28 34.48751 -85.28905 20416 ft 398 kts 146°
2026-05-04 19:29 34.46628 -85.26917 19968 ft 395 kts 146°
2026-05-04 19:29 34.44437 -85.24867 19506 ft 392 kts 145°
2026-05-04 19:29 34.42251 -85.22823 19045 ft 389 kts 145°
2026-05-04 19:29 34.40063 -85.20779 18587 ft 386 kts 145°
2026-05-04 19:30 34.38251 -85.19086 18196 ft 384 kts 145°
2026-05-04 19:30 34.36491 -85.17442 17817 ft 382 kts 145°
2026-05-04 19:30 34.34784 -85.15847 17439 ft 380 kts 145°
2026-05-04 19:30 34.33052 -85.14230 17057 ft 378 kts 145°
2026-05-04 19:31 34.31347 -85.12638 16681 ft 375 kts 145°
2026-05-04 19:31 34.29609 -85.11018 16303 ft 373 kts 144°
2026-05-04 19:31 34.27940 -85.09462 15934 ft 370 kts 144°
2026-05-04 19:31 34.26243 -85.07881 15555 ft 368 kts 144°
2026-05-04 19:32 34.24389 -85.06158 15144 ft 365 kts 144°
2026-05-04 19:32 34.22354 -85.04266 14704 ft 362 kts 144°
2026-05-04 19:32 34.20320 -85.02377 14252 ft 360 kts 144°
2026-05-04 19:32 34.18319 -85.00520 13806 ft 357 kts 144°
2026-05-04 19:33 34.16330 -84.98673 13360 ft 354 kts 144°
2026-05-04 19:33 34.14352 -84.96837 12924 ft 351 kts 144°
2026-05-04 19:33 34.12755 -84.95333 12824 ft 341 kts 143°
2026-05-04 19:33 34.11183 -84.93842 12847 ft 342 kts 143°
2026-05-04 19:34 34.09661 -84.92395 12867 ft 342 kts 143°
2026-05-04 19:34 34.08064 -84.90882 12888 ft 342 kts 143°
2026-05-04 19:34 34.06498 -84.89399 12908 ft 342 kts 143°
2026-05-04 19:34 34.04916 -84.87901 12928 ft 343 kts 143°
2026-05-04 19:35 34.03354 -84.86425 12949 ft 343 kts 143°
2026-05-04 19:35 34.01523 -84.84695 12965 ft 344 kts 143°
2026-05-04 19:35 33.99600 -84.82880 12971 ft 344 kts 143°
2026-05-04 19:35 33.97859 -84.81237 12975 ft 344 kts 143°
2026-05-04 19:36 33.95948 -84.79434 12975 ft 344 kts 143°
2026-05-04 19:36 33.94032 -84.77626 12970 ft 344 kts 143°
2026-05-04 19:36 33.92303 -84.75995 12968 ft 344 kts 143°
2026-05-04 19:36 33.90742 -84.74523 12967 ft 343 kts 143°
2026-05-04 19:37 33.89169 -84.73042 12959 ft 343 kts 143°
2026-05-04 19:37 33.87606 -84.71572 12947 ft 343 kts 143°
2026-05-04 19:37 33.86052 -84.70110 12696 ft 345 kts 143°
2026-05-04 19:37 33.84482 -84.68636 12269 ft 345 kts 143°
2026-05-04 19:38 33.82927 -84.67176 11897 ft 343 kts 143°
2026-05-04 19:38 33.81168 -84.65525 11499 ft 340 kts 143°
2026-05-04 19:38 33.79621 -84.64075 11145 ft 338 kts 143°
2026-05-04 19:38 33.78083 -84.62632 10793 ft 335 kts 143°
2026-05-04 19:39 33.76556 -84.61201 10458 ft 332 kts 143°
2026-05-04 19:39 33.75070 -84.59807 10270 ft 323 kts 142°
2026-05-04 19:39 33.73627 -84.57959 10116 ft 314 kts 121°
2026-05-04 19:39 33.73059 -84.55616 9983 ft 306 kts 94°
2026-05-04 19:40 33.73086 -84.53519 9798 ft 300 kts 89°
2026-05-04 19:40 33.73179 -84.51412 9477 ft 298 kts 89°
2026-05-04 19:40 33.73250 -84.49338 9175 ft 296 kts 90°
2026-05-04 19:40 33.73293 -84.47121 8859 ft 293 kts 91°
2026-05-04 19:41 33.73310 -84.45093 8597 ft 289 kts 91°
2026-05-04 19:41 33.73317 -84.43118 8336 ft 287 kts 91°
2026-05-04 19:41 33.73318 -84.41117 8171 ft 285 kts 91°
2026-05-04 19:41 33.73318 -84.39142 8138 ft 286 kts 91°
2026-05-04 19:42 33.73317 -84.37142 8094 ft 286 kts 91°
2026-05-04 19:42 33.73316 -84.35108 8040 ft 286 kts 91°
2026-05-04 19:42 33.73315 -84.33116 7964 ft 286 kts 92°
2026-05-04 19:42 33.73315 -84.31150 7826 ft 282 kts 91°
2026-05-04 19:43 33.73315 -84.29202 7578 ft 278 kts 91°
2026-05-04 19:43 33.73314 -84.27258 7234 ft 274 kts 91°
2026-05-04 19:43 33.73313 -84.25344 6907 ft 270 kts 91°
2026-05-04 19:43 33.73312 -84.23473 6629 ft 266 kts 91°
2026-05-04 19:44 33.73166 -84.21606 6265 ft 261 kts 109°
2026-05-04 19:44 33.72357 -84.20035 5841 ft 254 kts 141°
2026-05-04 19:44 33.71078 -84.19257 5445 ft 239 kts 173°
2026-05-04 19:44 33.69763 -84.19384 5139 ft 225 kts 198°
2026-05-04 19:45 33.68520 -84.19861 4932 ft 218 kts 196°
2026-05-04 19:45 33.67294 -84.20183 4638 ft 212 kts 190°
2026-05-04 19:45 33.66139 -84.20559 4280 ft 207 kts 207°
2026-05-04 19:45 33.65270 -84.21564 3989 ft 198 kts 240°
2026-05-04 19:46 33.64961 -84.22838 3856 ft 182 kts 261°
2026-05-04 19:46 33.64910 -84.24081 3660 ft 178 kts 269°
2026-05-04 19:46 33.64939 -84.25495 3451 ft 178 kts 270°
2026-05-04 19:46 33.64967 -84.26730 3242 ft 177 kts 270°
2026-05-04 19:47 33.64980 -84.27953 3039 ft 177 kts 269°
2026-05-04 19:47 33.64981 -84.29183 2845 ft 176 kts 268°
2026-05-04 19:47 33.64977 -84.30411 2649 ft 176 kts 268°
2026-05-04 19:47 33.64973 -84.31593 2444 ft 165 kts 268°
2026-05-04 19:48 33.64970 -84.32809 2248 ft 150 kts 268°
2026-05-04 19:48 33.64968 -84.33925 2090 ft 141 kts 268°
2026-05-04 19:48 33.64966 -84.34882 1951 ft 140 kts 268°
2026-05-04 19:48 33.64964 -84.35849 1786 ft 140 kts 268°
2026-05-04 19:49 33.64963 -84.37005 1615 ft 139 kts 267°
2026-05-04 19:49 33.64962 -84.37949 1449 ft 139 kts 268°
2026-05-04 19:49 33.64961 -84.38938 1309 ft 139 kts 267°
2026-05-04 19:49 33.64959 -84.39888 1166 ft 138 kts 268°
2026-05-04 19:50 33.64962 -84.40846 1043 ft 138 kts 268°
2026-05-04 19:50 33.64961 -84.41771 978 ft 121 kts 266°
2026-05-04 19:50 33.64948 -84.42454 987 ft 76 kts 266°
2026-05-04 19:50 33.64883 -84.42772 993 ft 25 kts 233°
2026-05-04 19:51 33.64809 -84.42815 994 ft 12 kts 220°
2026-05-04 19:51 33.64753 -84.42861 996 ft 10 kts 203°
2026-05-04 19:51 33.64693 -84.42870 997 ft 11 kts 173°
2026-05-04 19:51 33.64624 -84.42841 998 ft 14 kts 155°
2026-05-04 19:52 33.64551 -84.42799 998 ft 14 kts 154°
2026-05-04 19:52 33.64471 -84.42764 999 ft 13 kts 161°
2026-05-04 19:52 33.64388 -84.42734 1000 ft 11 kts 178°
2026-05-04 19:52 33.64314 -84.42732 1000 ft 9 kts 179°
2026-05-04 19:53 33.64247 -84.42731 1000 ft 6 kts 180°
2026-05-04 19:53 33.64200 -84.42729 1000 ft 5 kts 160°
2026-05-04 19:53 33.64188 -84.42687 1000 ft 5 kts 92°
2026-05-04 19:53 33.64188 -84.42650 1000 ft 5 kts 91°
2026-05-04 19:54 33.64188 -84.42629 999 ft 1 kts 90°
2026-05-04 19:54 33.64188 -84.42625 999 ft 0 kts 90°